When you browse on this site, cookies collect data to enhance your experience and personalize the content and advertising you see.
Visit our Privacy Policy to learn more. By continuing to use the site, you agree to this use of cookies and data.
  • In Germany
  • List of Countries
  • For 7 days
  • Water Temperature
  • Weather Map
  • Weather Widgets
  • user-avatar
    Login

    Hourly Weather Voshod

    Today, 22 October, Tuesday

    Time Temperature Precipitation Wind Pressure Humidity
    00:00 -1°C° 0 mm 4 mps 752 mmHg 95%
    01:00 -1°C° 0 mm 4 mps 751 mmHg 95%
    02:00 0°C° 0.1 mm 5 mps 750 mmHg 95%
    03:00 0°C° 0.1 mm 5 mps 750 mmHg 95%
    04:00 +1°C° 0 mm 5 mps 749 mmHg 94%
    05:00 +1°C° 0.2 mm 6 mps 748 mmHg 94%
    06:00 +1°C° 0.2 mm 6 mps 747 mmHg 94%
    07:00 +1°C° 0.2 mm 6 mps 746 mmHg 94%
    08:00 +2°C° 1.4 mm 7 mps 746 mmHg 94%
    09:00 +3°C° 1.4 mm 7 mps 745 mmHg 93%
    10:00 +3°C° 1.4 mm 7 mps 745 mmHg 93%
    11:00 +4°C° 0.1 mm 7 mps 745 mmHg 91%
    12:00 +4°C° 0.1 mm 7 mps 744 mmHg 89%
    13:00 +5°C° 0.1 mm 6 mps 744 mmHg 88%
    14:00 +4°C° 0 mm 6 mps 745 mmHg 87%
    15:00 +5°C° 0 mm 5 mps 745 mmHg 86%
    16:00 +3°C° 0 mm 5 mps 745 mmHg 85%
    17:00 +2°C° 0 mm 5 mps 746 mmHg 85%
    18:00 +1°C° 0 mm 4 mps 746 mmHg 85%
    19:00 0°C° 0 mm 4 mps 746 mmHg 85%
    20:00 -1°C° 0 mm 4 mps 747 mmHg 86%
    21:00 -1°C° 0 mm 4 mps 747 mmHg 87%
    22:00 0°C° 0 mm 3 mps 747 mmHg 88%
    23:00 -1°C° 0 mm 3 mps 747 mmHg 89%

    Tomorrow, 23 October, Wednesday

    Time Temperature Precipitation Wind Pressure Humidity
    00:00 -1°C° 0 mm 3 mps 747 mmHg 89%
    01:00 -1°C° 0 mm 3 mps 747 mmHg 90%
    02:00 -1°C° 0 mm 3 mps 747 mmHg 90%
    03:00 -2°C° 0 mm 3 mps 748 mmHg 90%
    04:00 -3°C° 0 mm 4 mps 748 mmHg 90%
    05:00 -3°C° 0 mm 4 mps 748 mmHg 89%
    06:00 -3°C° 0 mm 4 mps 748 mmHg 88%
    07:00 -3°C° 0 mm 4 mps 748 mmHg 87%
    08:00 -2°C° 0 mm 4 mps 748 mmHg 85%
    09:00 -2°C° 0 mm 4 mps 748 mmHg 82%
    10:00 -2°C° 0 mm 4 mps 748 mmHg 80%
    11:00 -1°C° 0 mm 4 mps 747 mmHg 79%
    12:00 0°C° 0 mm 4 mps 747 mmHg 78%
    13:00 0°C° 0 mm 5 mps 747 mmHg 77%
    14:00 0°C° 0 mm 4 mps 746 mmHg 79%
    15:00 0°C° 0 mm 4 mps 746 mmHg 80%
    16:00 -1°C° 0 mm 4 mps 746 mmHg 82%
    17:00 -1°C° 0 mm 4 mps 745 mmHg 83%
    18:00 -1°C° 0 mm 5 mps 745 mmHg 83%
    19:00 -1°C° 0 mm 5 mps 744 mmHg 84%
    20:00 0°C° 0 mm 5 mps 743 mmHg 85%
    21:00 +1°C° 0 mm 6 mps 743 mmHg 86%
    22:00 +1°C° 0 mm 6 mps 742 mmHg 87%
    23:00 +2°C° 0 mm 6 mps 742 mmHg 87%

    Day after tomorrow, 24 October, Thursday

    Time Temperature Precipitation Wind Pressure Humidity
    00:00 +2°C° 0 mm 6 mps 741 mmHg 87%
    01:00 +3°C° 0 mm 7 mps 741 mmHg 86%
    02:00 +3°C° 0.1 mm 6 mps 741 mmHg 87%
    03:00 +3°C° 0.1 mm 6 mps 741 mmHg 88%
    04:00 +4°C° 0.1 mm 6 mps 741 mmHg 89%
    05:00 +3°C° 0.1 mm 5 mps 742 mmHg 89%
    06:00 +3°C° 0.1 mm 5 mps 742 mmHg 89%
    07:00 +3°C° 0.1 mm 4 mps 743 mmHg 89%
    08:00 +3°C° 0 mm 5 mps 744 mmHg 86%
    09:00 +3°C° 0 mm 5 mps 744 mmHg 82%
    10:00 +3°C° 0 mm 5 mps 745 mmHg 79%
    11:00 +3°C° 0 mm 5 mps 745 mmHg 78%
    12:00 +3°C° 0 mm 5 mps 746 mmHg 78%
    13:00 +3°C° 0 mm 5 mps 746 mmHg 77%
    14:00 +3°C° 0 mm 4 mps 746 mmHg 78%
    15:00 +3°C° 0 mm 3 mps 747 mmHg 80%
    16:00 +3°C° 0 mm 3 mps 747 mmHg 81%
    17:00 +3°C° 0 mm 3 mps 747 mmHg 81%
    18:00 +3°C° 0 mm 3 mps 748 mmHg 81%
    19:00 +2°C° 0 mm 3 mps 748 mmHg 81%
    20:00 +2°C° 0 mm 3 mps 748 mmHg 80%
    21:00 +2°C° 0 mm 3 mps 749 mmHg 80%
    22:00 +2°C° 0 mm 3 mps 749 mmHg 80%
    23:00 +2°C° 0 mm 3 mps 749 mmHg 83%

    25 October, Friday

    Time Temperature Precipitation Wind Pressure Humidity
    00:00 +1°C° 0 mm 3 mps 749 mmHg 86%
    01:00 -1°C° 0 mm 4 mps 749 mmHg 90%
    02:00 -1°C° 0 mm 4 mps 749 mmHg 90%
    03:00 -1°C° 0 mm 4 mps 749 mmHg 90%
    04:00 -1°C° 0 mm 4 mps 749 mmHg 90%
    05:00 -1°C° 0 mm 4 mps 749 mmHg 89%
    06:00 -1°C° 0 mm 4 mps 749 mmHg 89%
    07:00 -1°C° 0 mm 4 mps 749 mmHg 88%
    08:00 -1°C° 0 mm 4 mps 749 mmHg 86%
    09:00 0°C° 0 mm 5 mps 749 mmHg 84%
    10:00 +1°C° 0 mm 5 mps 749 mmHg 82%
    11:00 +1°C° 0.1 mm 5 mps 749 mmHg 85%
    12:00 +1°C° 0.1 mm 4 mps 749 mmHg 88%
    13:00 +1°C° 0.1 mm 4 mps 749 mmHg 91%
    14:00 +1°C° 0.2 mm 4 mps 749 mmHg 93%
    15:00 +1°C° 0.2 mm 4 mps 749 mmHg 94%
    16:00 +1°C° 0.2 mm 4 mps 749 mmHg 96%
    17:00 +1°C° 0.1 mm 4 mps 749 mmHg 95%
    18:00 +1°C° 0.1 mm 4 mps 749 mmHg 93%
    19:00 +1°C° 0.1 mm 4 mps 749 mmHg 92%
    20:00 +3°C° 0 mm 4 mps 749 mmHg 91%
    21:00 +3°C° 0 mm 4 mps 748 mmHg 90%
    22:00 +2°C° 0 mm 5 mps 748 mmHg 89%
    23:00 +2°C° 0 mm 5 mps 748 mmHg 89%

    26 October, Saturday

    Time Temperature Precipitation Wind Pressure Humidity
    00:00 +2°C° 0 mm 5 mps 748 mmHg 89%
    01:00 +3°C° 0 mm 5 mps 749 mmHg 89%
    02:00 +2°C° 0 mm 5 mps 749 mmHg 89%
    03:00 +2°C° 0 mm 5 mps 750 mmHg 89%
    04:00 +2°C° 0 mm 5 mps 750 mmHg 88%
    05:00 +3°C° 0 mm 4 mps 751 mmHg 90%
    06:00 +2°C° 0 mm 3 mps 751 mmHg 91%
    07:00 +2°C° 0 mm 2 mps 752 mmHg 93%
    08:00 +3°C° 0 mm 2 mps 752 mmHg 92%
    09:00 +4°C° 0 mm 1 mps 753 mmHg 90%
    10:00 +5°C° 0 mm 1 mps 753 mmHg 89%
    11:00 +5°C° 0 mm 1 mps 753 mmHg 90%
    12:00 +4°C° 0 mm 2 mps 753 mmHg 91%
    13:00 +5°C° 0 mm 2 mps 753 mmHg 92%
    14:00 +4°C° 0 mm 3 mps 753 mmHg 90%
    15:00 +4°C° 0 mm 3 mps 752 mmHg 89%
    16:00 +5°C° 0 mm 4 mps 752 mmHg 87%
    17:00 +5°C° 0 mm 5 mps 752 mmHg 86%
    18:00 +5°C° 0 mm 5 mps 751 mmHg 85%
    19:00 +4°C° 0 mm 6 mps 751 mmHg 83%
    20:00 +4°C° 0 mm 6 mps 750 mmHg 84%
    21:00 +4°C° 0 mm 6 mps 750 mmHg 84%
    22:00 +5°C° 0 mm 7 mps 749 mmHg 85%
    23:00 +5°C° 0 mm 6 mps 749 mmHg 86%

    27 October, Sunday

    Time Temperature Precipitation Wind Pressure Humidity
    00:00 +5°C° 0 mm 6 mps 748 mmHg 86%
    01:00 +7°C° 0 mm 6 mps 748 mmHg 87%
    02:00 +7°C° 0 mm 6 mps 748 mmHg 87%
    03:00 +7°C° 0 mm 6 mps 748 mmHg 87%
    04:00 +7°C° 0 mm 5 mps 747 mmHg 87%
    05:00 +7°C° 0 mm 5 mps 747 mmHg 86%
    06:00 +7°C° 0 mm 5 mps 747 mmHg 86%
    07:00 +7°C° 0 mm 5 mps 747 mmHg 85%
    08:00 +7°C° 0 mm 5 mps 747 mmHg 83%
    09:00 +8°C° 0 mm 6 mps 746 mmHg 81%
    10:00 +8°C° 0 mm 6 mps 746 mmHg 80%
    11:00 +9°C° 0 mm 6 mps 746 mmHg 75%
    12:00 +10°C° 0 mm 6 mps 746 mmHg 71%
    13:00 +11°C° 0 mm 6 mps 746 mmHg 67%
    14:00 +11°C° 0 mm 6 mps 745 mmHg 68%
    15:00 +10°C° 0 mm 6 mps 745 mmHg 69%
    16:00 +10°C° 0 mm 6 mps 745 mmHg 69%
    17:00 +10°C° 0 mm 7 mps 744 mmHg 72%
    18:00 +10°C° 0 mm 7 mps 744 mmHg 75%
    19:00 +9°C° 0 mm 8 mps 744 mmHg 78%
    20:00 +9°C° 0 mm 7 mps 743 mmHg 78%
    21:00 +9°C° 0 mm 7 mps 743 mmHg 78%
    22:00 +9°C° 0 mm 7 mps 743 mmHg 78%
    23:00 +8°C° 0 mm 7 mps 743 mmHg 78%

    28 October, Monday

    Time Temperature Precipitation Wind Pressure Humidity
    00:00 +8°C° 0 mm 7 mps 742 mmHg 77%
    01:00 +8°C° 0 mm 7 mps 742 mmHg 77%
    02:00 +8°C° 0 mm 7 mps 741 mmHg 76%
    03:00 +6°C° 0 mm 7 mps 741 mmHg 75%
    04:00 +6°C° 0 mm 7 mps 741 mmHg 74%
    05:00 +6°C° 0 mm 7 mps 740 mmHg 73%
    06:00 +6°C° 0 mm 7 mps 740 mmHg 73%
    07:00 +6°C° 0 mm 7 mps 739 mmHg 73%
    08:00 +6°C° 0 mm 7 mps 739 mmHg 70%
    09:00 +8°C° 0 mm 7 mps 739 mmHg 68%
    10:00 +9°C° 0 mm 8 mps 738 mmHg 66%
    11:00 +9°C° 0 mm 7 mps 738 mmHg 67%
    12:00 +9°C° 0 mm 7 mps 738 mmHg 68%
    13:00 +9°C° 0 mm 7 mps 738 mmHg 69%
    14:00 +9°C° 0.1 mm 6 mps 737 mmHg 71%
    15:00 +9°C° 0.1 mm 6 mps 737 mmHg 73%
    16:00 +9°C° 0.1 mm 5 mps 737 mmHg 75%
    17:00 +8°C° 0.1 mm 5 mps 737 mmHg 75%
    18:00 +8°C° 0.1 mm 5 mps 737 mmHg 75%
    19:00 +8°C° 0.1 mm 5 mps 737 mmHg 75%
    20:00 +8°C° 0 mm 5 mps 736 mmHg 77%
    21:00 +8°C° 0 mm 5 mps 736 mmHg 78%
    22:00 +7°C° 0 mm 5 mps 736 mmHg 80%
    23:00 +7°C° 0.3 mm 4 mps 736 mmHg 83%
    Show more